GW3284 Weather Reports


time (UTC)temp
C
wind
direction
speed
KPH
gust
KPH
rain 1hr
cm
rain 24hr
cm
rain mn
cm
humidity
%
barometer
mb
20260906030051 29 0 0.0 3.2 0.00 0.00 0.00 61 1013.0
20260906024606 29 170 0.0 3.2 0.00 0.00 0.00 60 1012.7
20260906023100 28 189 0.0 1.6 0.00 0.00 0.00 61 1012.3
20260906021556 28 0 0.0 3.2 0.00 0.00 0.00 62 1012.1
20260906020101 29 0 0.0 3.2 0.00 0.00 0.00 62 1011.7
20260906014557 30 248 0.0 3.2 0.00 0.00 0.00 61 1011.8
20260906013059 30 298 0.0 3.2 0.00 0.00 0.00 60 1011.8
20260906011602 31 0 0.0 6.4 0.00 0.00 0.00 59 1011.7
20260906010100 32 283 1.6 9.7 0.00 0.00 0.00 55 1012.0
20260906004554 32 0 0.0 0.0 0.00 0.00 0.00 54 1011.8
20260906003102 32 0 0.0 3.2 0.00 0.00 0.00 54 1011.9
20260906001558 32 0 0.0 3.2 0.00 0.00 0.00 53 1011.7
20260906000107 32 341 0.0 3.2 0.00 0.00 0.00 53 1011.6
20260905234559 33 331 1.6 1.6 0.00 0.00 0.00 51 1011.8
20260905233059 33 302 1.6 3.2 0.00 0.00 0.00 49 1011.9
20260905231558 34 310 1.6 4.8 0.00 0.00 0.00 48 1011.7
20260905230052 34 321 0.0 3.2 0.00 0.00 0.00 48 1011.8
20260905224558 35 275 0.0 4.8 0.00 0.05 0.00 47 1011.6
20260905223058 35 342 1.6 3.2 0.00 0.05 0.00 47 1011.7
20260905221554 35 292 3.2 4.8 0.00 0.05 0.00 46 1011.6
20260905220100 35 303 1.6 4.8 0.00 0.05 0.00 46 1011.5
20260905214557 36 330 3.2 6.4 0.00 0.05 0.00 44 1011.8
20260905213100 36 280 3.2 4.8 0.00 0.05 0.00 42 1011.8
20260905211610 36 265 3.2 6.4 0.00 0.05 0.00 43 1011.7
20260905210104 36 275 1.6 6.4 0.00 0.05 0.00 42 1011.9
20260905204603 36 322 3.2 6.4 0.00 0.05 0.00 43 1012.1
20260905203101 36 315 3.2 9.7 0.00 0.05 0.00 44 1012.3
20260905201556 36 284 3.2 4.8 0.00 0.05 0.00 44 1012.4
20260905200118 35 5 1.6 6.4 0.00 0.05 0.00 45 1012.9
20260905194600 35 248 4.8 11.3 0.00 0.05 0.00 46 1013.1
20260905193102 35 174 1.6 3.2 0.00 0.05 0.00 44 1013.1
20260905191559 35 352 1.6 9.7 0.00 0.05 0.00 46 1013.4
20260905190058 35 241 1.6 6.4 0.00 0.05 0.00 47 1013.5
20260905184556 34 302 1.6 6.4 0.00 0.05 0.00 50 1013.8
20260905183100 35 275 0.0 6.4 0.00 0.05 0.00 50 1013.9
20260905181558 34 256 3.2 9.7 0.00 0.05 0.00 48 1014.3
20260905180100 34 219 3.2 6.4 0.00 0.05 0.00 50 1014.4
20260905174555 33 197 0.0 3.2 0.00 0.05 0.00 51 1014.5
20260905173103 33 298 3.2 9.7 0.00 0.05 0.00 52 1014.4
20260905171556 33 271 1.6 4.8 0.00 0.05 0.00 54 1014.6
20260905170116 33 275 1.6 3.2 0.00 0.05 0.00 55 1014.7
20260905164558 32 278 1.6 3.2 0.00 0.05 0.00 56 1015.1
20260905163058 32 271 0.0 4.8 0.00 0.05 0.00 59 1015.2
20260905161601 31 207 0.0 3.2 0.00 0.05 0.00 61 1015.4
20260905160059 30 277 1.6 3.2 0.00 0.05 0.00 64 1015.6
20260905154603 29 315 0.0 3.2 0.00 0.05 0.00 70 1015.6
20260905153056 28 311 0.0 3.2 0.00 0.05 0.00 73 1015.6
20260905151619 27 0 0.0 0.0 0.00 0.05 0.00 75 1015.9
20260905150105 27 232 0.0 3.2 0.00 0.05 0.00 74 1015.9
20260905144600 27 0 0.0 3.2 0.00 0.05 0.00 77 1015.9
20260905143056 27 113 0.0 3.2 0.00 0.05 0.00 78 1016.0
20260905141558 27 0 0.0 0.0 0.00 0.05 0.00 77 1015.9
20260905140059 26 0 0.0 0.0 0.00 0.05 0.00 75 1015.7
20260905134600 26 0 0.0 0.0 0.00 0.05 0.00 78 1015.8
20260905133058 26 0 0.0 0.0 0.00 0.05 0.00 80 1015.8
20260905131606 26 0 0.0 0.0 0.00 0.05 0.00 79 1015.9
20260905130055 26 0 0.0 0.0 0.00 0.05 0.00 77 1015.9
20260905124601 26 0 0.0 3.2 0.00 0.05 0.00 72 1016.0
20260905123058 26 0 0.0 0.0 0.00 0.05 0.00 73 1015.9
20260905121557 26 0 0.0 0.0 0.00 0.05 0.00 72 1015.8
20260905120054 26 0 0.0 0.0 0.00 0.05 0.00 72 1015.5
20260905114559 26 0 0.0 0.0 0.00 0.05 0.00 71 1015.4
20260905113058 26 0 0.0 0.0 0.00 0.05 0.00 70 1015.2
20260905111555 26 0 0.0 0.0 0.00 0.05 0.00 70 1015.0
20260905110111 26 0 0.0 0.0 0.00 0.05 0.00 68 1014.8
20260905104558 26 0 0.0 3.2 0.00 0.05 0.00 69 1014.6
20260905103059 26 0 0.0 3.2 0.00 0.05 0.00 69 1014.5
20260905101606 27 100 0.0 3.2 0.00 0.05 0.00 69 1014.4
20260905100059 27 100 0.0 3.2 0.00 0.05 0.00 68 1014.3
20260905094559 26 71 0.0 3.2 0.00 0.05 0.00 70 1014.3
20260905093106 26 98 0.0 1.6 0.00 0.05 0.00 72 1014.2
20260905091607 25 98 0.0 3.2 0.00 0.05 0.00 74 1014.2
20260905090058 25 0 0.0 3.2 0.00 0.05 0.00 75 1014.2
20260905084600 26 0 0.0 0.0 0.00 0.05 0.00 74 1014.3
20260905083054 26 98 0.0 1.6 0.00 0.05 0.00 71 1014.2
20260905081600 26 0 0.0 0.0 0.00 0.05 0.00 71 1014.2
20260905080105 26 0 0.0 0.0 0.00 0.05 0.00 70 1014.5
20260905074557 26 0 0.0 0.0 0.00 0.05 0.00 71 1014.5
20260905073054 26 0 0.0 0.0 0.00 0.05 0.00 70 1014.5
20260905071550 26 0 0.0 0.0 0.00 0.05 0.00 70 1014.6
20260905070116 27 0 0.0 3.2 0.00 0.05 0.00 70 1014.6
20260905064556 27 98 0.0 3.2 0.00 0.05 0.00 69 1014.5
20260905063058 27 100 0.0 1.6 0.00 0.05 0.00 67 1014.5
20260905061551 27 118 1.6 1.6 0.00 0.05 0.00 68 1014.6
20260905060059 27 136 0.0 1.6 0.00 0.05 0.00 69 1014.4
20260905054557 26 128 0.0 3.2 0.00 0.05 0.00 72 1014.5
20260905053054 27 0 0.0 3.2 0.00 0.05 0.00 73 1014.6
20260905051550 27 121 1.6 3.2 0.00 0.05 0.00 69 1014.4
20260905044555 27 0 0.0 0.0 0.00 0.05 0.05 71 1014.8
20260905043052 28 0 0.0 0.0 0.00 0.05 0.05 69 1014.8
20260905041600 28 0 0.0 1.6 0.00 0.05 0.05 67 1014.7
20260905040059 27 115 0.0 1.6 0.00 0.05 0.05 70 1014.9
20260905034554 26 0 0.0 0.0 0.00 0.05 0.05 73 1015.0
20260905033054 27 0 0.0 3.2 0.00 0.05 0.05 73 1015.0
20260905031606 28 0 0.0 0.0 0.00 0.05 0.05 71 1015.1